Terminal Aerodrome Forecast
Issued by NWS Atlanta, GA

Home | Current Version | Previous Version | Text Only | Print | Product List | Glossary On
Versions: 1 2 3 4 5 6 7 8 9 10 11 12 13 14 15 16 17 18 19 20 21 22 23 24 25 26 27 28 29 30 31 32 33 34 35 36 37 38 39 40 41
000
FTUS42 KFFC 310930 AAC
TAFATL
TAF AMD
KATL 310930Z 3110/0112 07008KT 5SM -DZ OVC004
      TEMPO 3110/3113 2SM -DZ
     FM311500 06006KT P6SM BKN010
     FM311700 04006KT P6SM BKN025
     FM311900 02005KT P6SM SCT040
     FM010000 VRB03KT P6SM SCT045 SCT250=

USA.gov is the U.S. government's official web portal to all federal, state and local government web resources and services.